| time (UTC) | temp F | wind direction | speed knots | gust knots | rain 1hr in | rain 24hr in | rain mn in | humidity % | barometer mb |
| 20260906212332 | 82 | 175 | 8.7 | 16.5 | 0.00 | 0.00 | 0.00 | 39 | 1020.9 |
| 20260906211831 | 82 | 163 | 7.8 | 18.2 | 0.00 | 0.00 | 0.00 | 39 | 1021.0 |
| 20260906211329 | 82 | 204 | 7.8 | 18.2 | 0.00 | 0.00 | 0.00 | 40 | 1021.0 |
| 20260906210831 | 82 | 134 | 8.7 | 16.5 | 0.00 | 0.00 | 0.00 | 40 | 1020.9 |
| 20260906205830 | 82 | 188 | 7.0 | 15.6 | 0.00 | 0.00 | 0.00 | 41 | 1021.3 |
| 20260906205331 | 82 | 167 | 6.1 | 12.2 | 0.00 | 0.00 | 0.00 | 42 | 1021.3 |
| 20260906204827 | 81 | 157 | 6.1 | 12.2 | 0.00 | 0.00 | 0.00 | 43 | 1021.4 |
| 20260906202803 | 81 | 175 | 7.0 | 16.5 | 0.00 | 0.00 | 0.00 | 41 | 1021.4 |
| 20260906202306 | 81 | 140 | 6.1 | 15.6 | 0.00 | 0.00 | 0.00 | 43 | 1021.5 |
| 20260906201757 | 80 | 180 | 7.0 | 15.6 | 0.00 | 0.00 | 0.00 | 43 | 1021.5 |
| 20260906200258 | 80 | 145 | 5.2 | 12.2 | 0.00 | 0.00 | 0.00 | 44 | 1021.5 |
| 20260906195759 | 80 | 177 | 6.1 | 13.9 | 0.00 | 0.00 | 0.00 | 43 | 1021.5 |
| 20260906195258 | 80 | 157 | 5.2 | 13.9 | 0.00 | 0.00 | 0.00 | 43 | 1021.6 |
| 20260906194758 | 81 | 157 | 4.3 | 12.2 | 0.00 | 0.00 | 0.00 | 43 | 1021.6 |
| 20260906194251 | 80 | 140 | 5.2 | 14.8 | 0.00 | 0.00 | 0.00 | 44 | 1021.9 |
| 20260906193751 | 80 | 158 | 6.1 | 16.5 | 0.00 | 0.00 | 0.00 | 43 | 1022.0 |
| 20260906193251 | 80 | 180 | 6.1 | 16.5 | 0.00 | 0.00 | 0.00 | 43 | 1021.9 |
| 20260906192751 | 81 | 138 | 7.0 | 15.6 | 0.00 | 0.00 | 0.00 | 41 | 1021.9 |
| 20260906192252 | 81 | 150 | 6.1 | 13.0 | 0.00 | 0.00 | 0.00 | 41 | 1021.9 |
| 20260906191752 | 81 | 111 | 4.3 | 13.0 | 0.00 | 0.00 | 0.00 | 42 | 1022.0 |
| 20260906191250 | 80 | 144 | 4.3 | 13.0 | 0.00 | 0.00 | 0.00 | 41 | 1022.3 |
| 20260906190749 | 80 | 193 | 4.3 | 13.0 | 0.00 | 0.00 | 0.00 | 40 | 1022.4 |
| 20260906185736 | 80 | 155 | 4.3 | 10.4 | 0.00 | 0.00 | 0.00 | 40 | 1022.4 |
| 20260906185222 | 80 | 182 | 7.0 | 11.3 | 0.00 | 0.00 | 0.00 | 39 | 1022.6 |
| 20260906184722 | 80 | 225 | 4.3 | 11.3 | 0.00 | 0.00 | 0.00 | 40 | 1022.8 |
| 20260906184220 | 80 | 172 | 2.6 | 7.8 | 0.00 | 0.00 | 0.00 | 41 | 1022.8 |
| 20260906183719 | 80 | 203 | 4.3 | 9.6 | 0.00 | 0.00 | 0.00 | 41 | 1022.9 |
| 20260906183219 | 80 | 202 | 3.5 | 9.6 | 0.00 | 0.00 | 0.00 | 40 | 1022.9 |
| 20260906182719 | 80 | 170 | 0.9 | 7.0 | 0.00 | 0.00 | 0.00 | 41 | 1023.0 |
| 20260906182220 | 80 | 144 | 0.9 | 5.2 | 0.00 | 0.00 | 0.00 | 42 | 1023.0 |
| 20260906181718 | 79 | 156 | 2.6 | 7.8 | 0.00 | 0.00 | 0.00 | 41 | 1023.0 |
| 20260906181220 | 79 | 128 | 2.6 | 7.8 | 0.00 | 0.00 | 0.00 | 42 | 1023.1 |
| 20260906180710 | 78 | 148 | 3.5 | 8.7 | 0.00 | 0.00 | 0.00 | 43 | 1023.3 |
| 20260906175704 | 77 | 148 | 1.7 | 7.8 | 0.00 | 0.00 | 0.00 | 43 | 1023.5 |
| 20260906175201 | 77 | 121 | 2.6 | 7.8 | 0.00 | 0.00 | 0.00 | 43 | 1023.5 |
| 20260906174202 | 78 | 159 | 2.6 | 8.7 | 0.00 | 0.00 | 0.00 | 42 | 1023.6 |
| 20260906173659 | 78 | 156 | 3.5 | 9.6 | 0.00 | 0.00 | 0.00 | 42 | 1023.9 |
| 20260906173159 | 78 | 148 | 1.7 | 9.6 | 0.00 | 0.00 | 0.00 | 42 | 1023.8 |
| 20260906172659 | 77 | 167 | 1.7 | 5.2 | 0.00 | 0.00 | 0.00 | 43 | 1023.8 |
| 20260906172159 | 77 | 69 | 1.7 | 7.0 | 0.00 | 0.00 | 0.00 | 43 | 1023.9 |
| 20260906171144 | 77 | 113 | 2.6 | 7.8 | 0.00 | 0.00 | 0.00 | 43 | 1023.9 |
| 20260906170641 | 77 | 134 | 3.5 | 9.6 | 0.00 | 0.00 | 0.00 | 42 | 1023.9 |
| 20260906170139 | 77 | 108 | 2.6 | 9.6 | 0.00 | 0.00 | 0.00 | 43 | 1023.9 |
| 20260906165639 | 77 | 120 | 2.6 | 7.8 | 0.00 | 0.00 | 0.00 | 43 | 1024.0 |
| 20260906165139 | 77 | 86 | 2.6 | 7.8 | 0.00 | 0.00 | 0.00 | 43 | 1024.1 |
| 20260906164138 | 77 | 142 | 1.7 | 6.1 | 0.00 | 0.00 | 0.00 | 43 | 1024.0 |
| 20260906163636 | 76 | 127 | 2.6 | 7.0 | 0.00 | 0.00 | 0.00 | 43 | 1023.9 |
| 20260906163136 | 76 | 142 | 2.6 | 7.0 | 0.00 | 0.00 | 0.00 | 43 | 1023.9 |
| 20260906162122 | 75 | 105 | 2.6 | 7.8 | 0.00 | 0.00 | 0.00 | 44 | 1023.9 |
| 20260906161621 | 75 | 97 | 1.7 | 5.2 | 0.00 | 0.00 | 0.00 | 44 | 1023.9 |
| 20260906161121 | 75 | 48 | 1.7 | 6.1 | 0.00 | 0.00 | 0.00 | 45 | 1023.9 |
| 20260906160622 | 74 | 123 | 2.6 | 7.8 | 0.00 | 0.00 | 0.00 | 45 | 1024.0 |
| 20260906160121 | 74 | 51 | 1.7 | 7.8 | 0.00 | 0.00 | 0.00 | 47 | 1024.0 |
| 20260906155621 | 74 | 96 | 2.6 | 8.7 | 0.00 | 0.00 | 0.00 | 46 | 1024.0 |
| 20260906154622 | 74 | 80 | 4.3 | 9.6 | 0.00 | 0.00 | 0.00 | 45 | 1023.9 |
| 20260906153621 | 74 | 47 | 3.5 | 8.7 | 0.00 | 0.00 | 0.00 | 43 | 1023.8 |
| 20260906153120 | 74 | 57 | 3.5 | 8.7 | 0.00 | 0.00 | 0.00 | 42 | 1023.8 |
| 20260906152611 | 74 | 40 | 3.5 | 7.8 | 0.00 | 0.00 | 0.00 | 43 | 1023.6 |
| 20260906151110 | 73 | 55 | 4.3 | 7.8 | 0.00 | 0.00 | 0.00 | 43 | 1023.8 |
| 20260906150611 | 73 | 33 | 5.2 | 8.7 | 0.00 | 0.00 | 0.00 | 44 | 1023.8 |
| 20260906150112 | 73 | 54 | 5.2 | 10.4 | 0.00 | 0.00 | 0.00 | 44 | 1023.6 |
| 20260906145605 | 73 | 35 | 6.1 | 10.4 | 0.00 | 0.00 | 0.00 | 46 | 1023.5 |
| 20260906144606 | 72 | 5 | 7.0 | 11.3 | 0.00 | 0.00 | 0.00 | 47 | 1023.5 |
| 20260906144105 | 71 | 15 | 7.0 | 11.3 | 0.00 | 0.00 | 0.00 | 47 | 1023.5 |
| 20260906142604 | 71 | 5 | 6.1 | 10.4 | 0.00 | 0.00 | 0.00 | 50 | 1023.4 |
| 20260906142049 | 70 | 355 | 7.8 | 10.4 | 0.00 | 0.00 | 0.00 | 50 | 1023.3 |
| 20260906141022 | 69 | 15 | 6.1 | 9.6 | 0.00 | 0.00 | 0.00 | 51 | 1023.4 |
| 20260906140522 | 69 | 11 | 5.2 | 9.6 | 0.00 | 0.00 | 0.00 | 51 | 1023.3 |
| 20260906140022 | 68 | 5 | 5.2 | 9.6 | 0.00 | 0.00 | 0.00 | 52 | 1023.3 |
| 20260906134520 | 66 | 5 | 7.0 | 11.3 | 0.00 | 0.00 | 0.00 | 54 | 1023.1 |
| 20260906134019 | 65 | 9 | 6.1 | 10.4 | 0.00 | 0.00 | 0.00 | 54 | 1023.1 |
| 20260906133519 | 65 | 355 | 3.5 | 9.6 | 0.00 | 0.00 | 0.00 | 55 | 1023.0 |
| 20260906133019 | 64 | 23 | 3.5 | 8.7 | 0.00 | 0.00 | 0.00 | 56 | 1023.0 |
| 20260906131955 | 63 | 9 | 5.2 | 9.6 | 0.00 | 0.00 | 0.00 | 57 | 1023.0 |
| 20260906131441 | 63 | 355 | 5.2 | 9.6 | 0.00 | 0.00 | 0.00 | 57 | 1022.9 |
| 20260906130928 | 62 | 22 | 5.2 | 8.7 | 0.00 | 0.00 | 0.00 | 58 | 1022.8 |
| 20260906130417 | 62 | 9 | 4.3 | 7.8 | 0.00 | 0.00 | 0.00 | 59 | 1022.8 |
| 20260906125401 | 61 | 349 | 3.5 | 7.8 | 0.00 | 0.00 | 0.00 | 59 | 1022.6 |
| 20260906124337 | 60 | 350 | 5.2 | 8.7 | 0.00 | 0.00 | 0.00 | 60 | 1022.6 |
| 20260906123828 | 60 | 13 | 4.3 | 8.7 | 0.00 | 0.00 | 0.00 | 60 | 1022.8 |
| 20260906123328 | 60 | 20 | 3.5 | 8.7 | 0.00 | 0.00 | 0.00 | 59 | 1022.8 |
| 20260906122829 | 60 | 347 | 3.5 | 8.7 | 0.00 | 0.00 | 0.00 | 59 | 1022.8 |
| 20260906122328 | 60 | 348 | 3.5 | 7.8 | 0.00 | 0.00 | 0.00 | 59 | 1022.6 |
| 20260906121828 | 60 | 355 | 1.7 | 6.1 | 0.00 | 0.00 | 0.00 | 59 | 1022.6 |
| 20260906121328 | 60 | 0 | 2.6 | 7.8 | 0.00 | 0.00 | 0.00 | 59 | 1022.5 |
| 20260906120829 | 60 | 17 | 2.6 | 7.8 | 0.00 | 0.00 | 0.00 | 59 | 1022.5 |
| 20260906120328 | 60 | 355 | 2.6 | 7.0 | 0.00 | 0.00 | 0.00 | 60 | 1022.5 |
| 20260906115829 | 60 | 5 | 2.6 | 7.0 | 0.00 | 0.00 | 0.00 | 60 | 1022.5 |
| 20260906115327 | 60 | 355 | 3.5 | 6.1 | 0.00 | 0.00 | 0.00 | 60 | 1022.5 |
| 20260906114316 | 60 | 0 | 4.3 | 7.8 | 0.00 | 0.00 | 0.00 | 59 | 1022.6 |
| 20260906113316 | 60 | 11 | 4.3 | 7.8 | 0.00 | 0.00 | 0.00 | 60 | 1022.6 |
| 20260906112817 | 59 | 5 | 3.5 | 7.0 | 0.00 | 0.00 | 0.00 | 60 | 1022.5 |
| 20260906112318 | 59 | 5 | 3.5 | 7.0 | 0.00 | 0.00 | 0.00 | 60 | 1022.4 |
| 20260906111816 | 59 | 350 | 2.6 | 7.0 | 0.00 | 0.00 | 0.00 | 61 | 1022.3 |
| 20260906111317 | 59 | 9 | 1.7 | 5.2 | 0.00 | 0.00 | 0.00 | 61 | 1022.3 |
| 20260906110803 | 59 | 5 | 2.6 | 5.2 | 0.00 | 0.00 | 0.00 | 61 | 1022.3 |
| 20260906110249 | 59 | 349 | 2.6 | 5.2 | 0.00 | 0.00 | 0.00 | 62 | 1022.3 |
| 20260906105747 | 59 | 349 | 3.5 | 6.1 | 0.00 | 0.00 | 0.00 | 62 | 1022.3 |
| 20260906105246 | 60 | 5 | 3.5 | 6.1 | 0.00 | 0.00 | 0.00 | 63 | 1022.3 |
| 20260906104746 | 60 | 355 | 2.6 | 4.3 | 0.00 | 0.00 | 0.00 | 63 | 1022.4 |
| 20260906104246 | 59 | 0 | 2.6 | 5.2 | 0.00 | 0.00 | 0.00 | 64 | 1022.4 |
| 20260906103746 | 59 | 0 | 2.6 | 5.2 | 0.00 | 0.00 | 0.00 | 65 | 1022.4 |
| 20260906103246 | 59 | 355 | 2.6 | 7.0 | 0.00 | 0.00 | 0.00 | 65 | 1022.3 |
| 20260906102247 | 59 | 13 | 2.6 | 6.1 | 0.00 | 0.00 | 0.00 | 65 | 1022.4 |
| 20260906101745 | 59 | 355 | 3.5 | 7.0 | 0.00 | 0.00 | 0.00 | 65 | 1022.4 |
| 20260906100210 | 59 | 355 | 2.6 | 6.1 | 0.00 | 0.00 | 0.00 | 66 | 1022.5 |
| 20260906095710 | 59 | 5 | 1.7 | 6.1 | 0.00 | 0.00 | 0.00 | 67 | 1022.5 |
| 20260906095210 | 59 | 355 | 0.9 | 5.2 | 0.00 | 0.00 | 0.00 | 68 | 1022.8 |
| 20260906094711 | 59 | 5 | 0.9 | 3.5 | 0.00 | 0.00 | 0.00 | 68 | 1022.8 |
| 20260906094210 | 59 | 355 | 2.6 | 6.1 | 0.00 | 0.00 | 0.00 | 69 | 1022.8 |
| 20260906093710 | 59 | 5 | 4.3 | 6.1 | 0.00 | 0.00 | 0.00 | 69 | 1022.8 |
| 20260906092209 | 59 | 355 | 1.7 | 3.5 | 0.00 | 0.00 | 0.00 | 71 | 1022.8 |
| 20260906091709 | 60 | 0 | 2.6 | 4.3 | 0.00 | 0.00 | 0.00 | 71 | 1022.6 |
| 20260906091205 | 60 | 0 | 2.6 | 4.3 | 0.00 | 0.00 | 0.00 | 71 | 1022.6 |
| 20260906090706 | 60 | 0 | 2.6 | 6.1 | 0.00 | 0.00 | 0.00 | 70 | 1022.5 |
| 20260906090207 | 61 | 5 | 2.6 | 6.1 | 0.00 | 0.00 | 0.00 | 70 | 1022.6 |
| 20260906085205 | 62 | 341 | 0.9 | 3.5 | 0.00 | 0.00 | 0.00 | 69 | 1022.5 |
| 20260906084705 | 62 | 355 | 0.9 | 4.3 | 0.00 | 0.00 | 0.00 | 69 | 1022.5 |
| 20260906084203 | 62 | 351 | 1.7 | 5.2 | 0.00 | 0.00 | 0.00 | 69 | 1022.5 |
| 20260906083701 | 63 | 0 | 2.6 | 7.0 | 0.00 | 0.00 | 0.00 | 69 | 1022.5 |
| 20260906083151 | 63 | 350 | 3.5 | 7.0 | 0.00 | 0.00 | 0.00 | 70 | 1022.6 |
| 20260906082641 | 63 | 5 | 2.6 | 7.0 | 0.00 | 0.00 | 0.00 | 71 | 1022.4 |
| 20260906082130 | 63 | 5 | 2.6 | 6.1 | 0.00 | 0.00 | 0.00 | 71 | 1022.5 |
| 20260906081623 | 63 | 10 | 2.6 | 5.2 | 0.00 | 0.00 | 0.00 | 71 | 1022.5 |
| 20260906080621 | 63 | 355 | 0.9 | 5.2 | 0.00 | 0.00 | 0.00 | 71 | 1022.6 |
| 20260906080123 | 62 | 348 | 0.9 | 5.2 | 0.00 | 0.00 | 0.00 | 73 | 1022.5 |
| 20260906075622 | 62 | 9 | 0.0 | 3.5 | 0.00 | 0.00 | 0.00 | 73 | 1022.5 |
| 20260906075120 | 61 | 328 | 0.0 | 2.6 | 0.00 | 0.00 | 0.00 | 74 | 1022.6 |
| 20260906074121 | 61 | 338 | 0.0 | 3.5 | 0.00 | 0.00 | 0.00 | 74 | 1022.6 |
| 20260906073615 | 61 | 291 | 0.0 | 1.7 | 0.00 | 0.00 | 0.00 | 74 | 1022.6 |
| 20260906073115 | 60 | 293 | 0.0 | 1.7 | 0.00 | 0.00 | 0.00 | 75 | 1022.6 |
| 20260906072614 | 60 | 320 | 0.0 | 1.7 | 0.00 | 0.00 | 0.00 | 76 | 1022.8 |
| 20260906072114 | 60 | 348 | 0.0 | 0.9 | 0.00 | 0.00 | 0.00 | 75 | 1023.0 |
| 20260906071115 | 60 | 348 | 0.0 | 3.5 | 0.00 | 0.00 | 0.00 | 75 | 1022.9 |
| 20260906070614 | 60 | 329 | 0.0 | 3.5 | 0.00 | 0.00 | 0.00 | 75 | 1022.9 |
| 20260906070114 | 60 | 331 | 0.0 | 1.7 | 0.00 | 0.00 | 0.00 | 75 | 1022.9 |
| 20260906065615 | 60 | 355 | 0.0 | 0.9 | 0.00 | 0.00 | 0.00 | 74 | 1023.0 |
| 20260906065114 | 60 | 355 | 0.0 | 3.5 | 0.00 | 0.00 | 0.00 | 74 | 1023.0 |
| 20260906064615 | 61 | 350 | 0.0 | 3.5 | 0.00 | 0.00 | 0.00 | 74 | 1023.1 |
| 20260906064114 | 61 | 284 | 0.0 | 1.7 | 0.00 | 0.00 | 0.00 | 73 | 1023.1 |
| 20260906063614 | 62 | 221 | 0.0 | 0.0 | 0.00 | 0.00 | 0.00 | 72 | 1023.1 |
| 20260906063115 | 62 | 220 | 0.0 | 0.0 | 0.00 | 0.00 | 0.00 | 72 | 1023.1 |
| 20260906062614 | 62 | 220 | 0.0 | 0.0 | 0.00 | 0.00 | 0.00 | 72 | 1023.0 |
| 20260906062114 | 62 | 220 | 0.0 | 0.0 | 0.00 | 0.00 | 0.00 | 72 | 1023.0 |
| 20260906061613 | 62 | 220 | 0.0 | 0.0 | 0.00 | 0.00 | 0.00 | 72 | 1023.1 |
| 20260906061113 | 62 | 220 | 0.0 | 0.0 | 0.00 | 0.00 | 0.00 | 72 | 1022.9 |
| 20260906060558 | 62 | 220 | 0.0 | 3.5 | 0.00 | 0.00 | 0.00 | 71 | 1022.9 |
| 20260906055557 | 62 | 144 | 0.0 | 0.0 | 0.00 | 0.00 | 0.00 | 72 | 1022.9 |
| 20260906055054 | 62 | 144 | 0.0 | 0.0 | 0.00 | 0.00 | 0.00 | 70 | 1023.0 |
| 20260906054552 | 62 | 144 | 0.0 | 0.0 | 0.00 | 0.00 | 0.00 | 72 | 1022.8 |
| 20260906053551 | 63 | 144 | 0.0 | 0.0 | 0.00 | 0.00 | 0.00 | 71 | 1022.9 |
| 20260906053053 | 63 | 144 | 0.0 | 0.0 | 0.00 | 0.00 | 0.00 | 70 | 1022.9 |
| 20260906052547 | 64 | 144 | 0.0 | 0.0 | 0.00 | 0.00 | 0.00 | 70 | 1022.9 |
| 20260906052046 | 64 | 144 | 0.0 | 0.0 | 0.00 | 0.00 | 0.00 | 69 | 1022.8 |
| 20260906051040 | 64 | 144 | 0.0 | 0.0 | 0.00 | 0.00 | 0.00 | 69 | 1022.9 |
| 20260906050537 | 64 | 109 | 0.0 | 0.0 | 0.00 | 0.00 | 0.00 | 69 | 1023.0 |
| 20260906050034 | 64 | 109 | 0.0 | 0.0 | 0.00 | 0.00 | 0.00 | 69 | 1023.0 |
| 20260906045535 | 64 | 109 | 0.0 | 0.0 | 0.00 | 0.00 | 0.00 | 69 | 1022.9 |
| 20260906045036 | 64 | 109 | 0.0 | 0.0 | 0.00 | 0.00 | 0.00 | 69 | 1022.9 |
| 20260906044533 | 65 | 109 | 0.0 | 0.0 | 0.00 | 0.00 | 0.00 | 68 | 1023.0 |
| 20260906044034 | 65 | 109 | 0.0 | 0.0 | 0.00 | 0.00 | 0.00 | 68 | 1023.0 |
| 20260906043534 | 65 | 109 | 0.0 | 0.0 | 0.00 | 0.00 | 0.00 | 69 | 1023.1 |
| 20260906043026 | 65 | 109 | 0.0 | 0.0 | 0.00 | 0.00 | 0.00 | 68 | 1022.9 |
| 20260906042524 | 66 | 109 | 0.0 | 0.0 | 0.00 | 0.00 | 0.00 | 68 | 1023.0 |
| 20260906042022 | 66 | 109 | 0.0 | 1.7 | 0.00 | 0.00 | 0.00 | 68 | 1023.0 |
| 20260906041519 | 66 | 109 | 0.0 | 1.7 | 0.00 | 0.00 | 0.00 | 68 | 1023.1 |
| 20260906040017 | 66 | 109 | 0.0 | 1.7 | 0.00 | 0.00 | 0.00 | 69 | 1023.0 |
| 20260906035517 | 66 | 109 | 0.0 | 1.7 | 0.00 | 0.00 | 0.00 | 69 | 1023.1 |
| 20260906035018 | 66 | 109 | 0.0 | 0.0 | 0.00 | 0.00 | 0.00 | 69 | 1023.1 |
| 20260906034516 | 67 | 109 | 0.0 | 0.9 | 0.00 | 0.00 | 0.00 | 68 | 1023.3 |
| 20260906034019 | 67 | 109 | 0.0 | 3.5 | 0.00 | 0.00 | 0.00 | 68 | 1023.3 |
| 20260906033512 | 67 | 109 | 0.0 | 2.6 | 0.00 | 0.00 | 0.00 | 68 | 1023.1 |
| 20260906033002 | 67 | 147 | 0.0 | 0.0 | 0.00 | 0.00 | 0.00 | 68 | 1023.0 |
| 20260906031953 | 67 | 147 | 0.9 | 3.5 | 0.00 | 0.00 | 0.00 | 67 | 1023.0 |
| 20260906031451 | 68 | 147 | 0.9 | 3.5 | 0.00 | 0.00 | 0.00 | 67 | 1023.0 |
| 20260906030949 | 68 | 123 | 0.0 | 2.6 | 0.00 | 0.00 | 0.00 | 67 | 1023.0 |
| 20260906030448 | 68 | 114 | 0.0 | 0.0 | 0.00 | 0.00 | 0.00 | 67 | 1022.9 |
| 20260906025948 | 68 | 114 | 0.0 | 0.0 | 0.00 | 0.00 | 0.00 | 66 | 1022.9 |
| 20260906025447 | 68 | 114 | 0.0 | 0.0 | 0.00 | 0.00 | 0.00 | 66 | 1022.8 |
| 20260906024946 | 69 | 111 | 0.0 | 3.5 | 0.00 | 0.00 | 0.00 | 66 | 1022.6 |
| 20260906024444 | 69 | 94 | 0.0 | 3.5 | 0.00 | 0.00 | 0.00 | 65 | 1022.5 |
| 20260906023933 | 69 | 130 | 0.0 | 2.6 | 0.00 | 0.00 | 0.00 | 64 | 1022.6 |
| 20260906022927 | 70 | 105 | 2.6 | 6.1 | 0.00 | 0.00 | 0.00 | 64 | 1022.4 |
| 20260906021928 | 71 | 166 | 4.3 | 11.3 | 0.00 | 0.00 | 0.00 | 62 | 1022.4 |
| 20260906020928 | 71 | 157 | 4.3 | 8.7 | 0.00 | 0.00 | 0.00 | 61 | 1022.4 |
| 20260906020426 | 72 | 155 | 5.2 | 11.3 | 0.00 | 0.00 | 0.00 | 59 | 1022.4 |
| 20260906015928 | 72 | 136 | 6.1 | 15.6 | 0.00 | 0.00 | 0.00 | 58 | 1022.3 |
| 20260906015427 | 72 | 141 | 5.2 | 15.6 | 0.00 | 0.00 | 0.00 | 55 | 1022.1 |
| 20260906014926 | 71 | 111 | 2.6 | 5.2 | 0.00 | 0.00 | 0.00 | 41 | 1022.0 |
| 20260906014424 | 70 | 33 | 2.6 | 5.2 | 0.00 | 0.00 | 0.00 | 42 | 1021.6 |
| 20260906013926 | 70 | 18 | 0.9 | 4.3 | 0.00 | 0.00 | 0.00 | 42 | 1021.8 |
| 20260906013416 | 71 | 13 | 0.0 | 3.5 | 0.00 | 0.00 | 0.00 | 42 | 1021.6 |
| 20260906012916 | 72 | 13 | 0.0 | 2.6 | 0.00 | 0.00 | 0.00 | 40 | 1021.6 |
| 20260906012414 | 73 | 13 | 1.7 | 3.5 | 0.00 | 0.00 | 0.00 | 40 | 1021.6 |
| 20260906011915 | 74 | 13 | 3.5 | 6.1 | 0.00 | 0.00 | 0.00 | 39 | 1021.6 |
| 20260906010912 | 76 | 14 | 2.6 | 4.3 | 0.00 | 0.00 | 0.00 | 37 | 1021.8 |
| 20260906010413 | 76 | 32 | 2.6 | 3.5 | 0.00 | 0.00 | 0.00 | 37 | 1021.8 |
| 20260906005400 | 77 | 32 | 1.7 | 4.3 | 0.00 | 0.00 | 0.00 | 36 | 1021.9 |
| 20260906004858 | 77 | 32 | 1.7 | 3.5 | 0.00 | 0.00 | 0.00 | 36 | 1022.0 |
| 20260906004358 | 77 | 32 | 2.6 | 3.5 | 0.00 | 0.00 | 0.00 | 36 | 1021.9 |
| 20260906003859 | 78 | 32 | 1.7 | 4.3 | 0.00 | 0.00 | 0.00 | 36 | 1022.0 |
| 20260906003357 | 78 | 36 | 0.9 | 4.3 | 0.00 | 0.00 | 0.00 | 35 | 1021.9 |
| 20260906002852 | 78 | 36 | 0.9 | 3.5 | 0.00 | 0.00 | 0.00 | 35 | 1021.9 |
| 20260906002350 | 78 | 36 | 1.7 | 4.3 | 0.00 | 0.00 | 0.00 | 35 | 1021.8 |
| 20260906001848 | 78 | 36 | 0.9 | 4.3 | 0.00 | 0.00 | 0.00 | 35 | 1021.8 |
| 20260906001347 | 78 | 36 | 0.9 | 3.5 | 0.00 | 0.00 | 0.00 | 35 | 1021.8 |
| 20260906000844 | 78 | 36 | 1.7 | 7.0 | 0.00 | 0.00 | 0.00 | 35 | 1021.8 |
| 20260906000348 | 79 | 34 | 2.6 | 7.0 | 0.00 | 0.00 | 0.00 | 34 | 1021.8 |
| 20260905235846 | 79 | 30 | 1.7 | 5.2 | 0.00 | 0.00 | 0.00 | 33 | 1021.6 |
| 20260905235344 | 79 | 42 | 1.7 | 5.2 | 0.00 | 0.00 | 0.00 | 33 | 1021.6 |
| 20260905234340 | 80 | 20 | 1.7 | 5.2 | 0.00 | 0.00 | 0.00 | 33 | 1021.6 |
| 20260905233837 | 80 | 56 | 0.9 | 5.2 | 0.00 | 0.00 | 0.00 | 32 | 1021.6 |
| 20260905233335 | 80 | 66 | 0.0 | 0.0 | 0.00 | 0.00 | 0.00 | 33 | 1021.8 |
| 20260905232832 | 80 | 66 | 0.0 | 4.3 | 0.00 | 0.00 | 0.00 | 32 | 1021.6 |
| 20260905232329 | 80 | 66 | 0.9 | 5.2 | 0.00 | 0.00 | 0.00 | 32 | 1021.6 |
| 20260905231829 | 81 | 66 | 0.9 | 5.2 | 0.00 | 0.00 | 0.00 | 32 | 1021.6 |
| 20260905231330 | 82 | 26 | 0.0 | 0.9 | 0.00 | 0.00 | 0.00 | 31 | 1021.5 |
| 20260905230829 | 82 | 17 | 0.9 | 3.5 | 0.00 | 0.00 | 0.00 | 31 | 1021.5 |
| 20260905230328 | 82 | 17 | 1.7 | 4.3 | 0.00 | 0.00 | 0.00 | 31 | 1021.6 |
| 20260905225827 | 82 | 44 | 0.9 | 4.3 | 0.00 | 0.00 | 0.00 | 30 | 1021.5 |
| 20260905225325 | 82 | 0 | 0.0 | 4.3 | 0.00 | 0.00 | 0.00 | 31 | 1021.5 |
| 20260905224823 | 82 | 5 | 1.7 | 7.8 | 0.00 | 0.00 | 0.00 | 31 | 1021.8 |
| 20260905224315 | 82 | 9 | 1.7 | 7.8 | 0.00 | 0.00 | 0.00 | 31 | 1021.8 |
| 20260905223810 | 82 | 15 | 0.9 | 7.0 | 0.00 | 0.00 | 0.00 | 31 | 1021.8 |
| 20260905223309 | 82 | 331 | 0.9 | 5.2 | 0.00 | 0.00 | 0.00 | 31 | 1022.0 |
| 20260905222809 | 82 | 355 | 0.9 | 5.2 | 0.00 | 0.00 | 0.00 | 31 | 1022.0 |
| 20260905222309 | 82 | 330 | 1.7 | 5.2 | 0.00 | 0.00 | 0.00 | 31 | 1022.1 |
| 20260905221807 | 81 | 0 | 0.9 | 4.3 | 0.00 | 0.00 | 0.00 | 32 | 1021.9 |
| 20260905221306 | 81 | 30 | 1.7 | 7.8 | 0.00 | 0.00 | 0.00 | 31 | 1022.0 |
| 20260905220807 | 82 | 15 | 1.7 | 7.8 | 0.00 | 0.00 | 0.00 | 31 | 1022.0 |
| 20260905220305 | 82 | 38 | 0.9 | 6.1 | 0.00 | 0.00 | 0.00 | 30 | 1021.9 |
| 20260905215803 | 82 | 10 | 0.9 | 6.1 | 0.00 | 0.00 | 0.00 | 31 | 1021.9 |
| 20260905215306 | 81 | 347 | 1.7 | 7.0 | 0.00 | 0.00 | 0.00 | 33 | 1022.1 |
| 20260905213301 | 80 | 18 | 5.2 | 12.2 | 0.00 | 0.00 | 0.00 | 35 | 1022.1 |
| 20260905212802 | 79 | 13 | 3.5 | 10.4 | 0.00 | 0.00 | 0.00 | 34 | 1022.5 |